Regional Weather Roundup
Issued by NWS

Home | Current Version | Previous Version | Text Only | Print | Product List | Glossary Off
Versions: 1 2 3 4 5 6 7 8 9 10 11 12 13 14 15 16 17 18 19 20 21 22 23 24 25 26 27 28 29 30 31 32 33 34 35 36 37 38 39 40 41 42 43 44 45 46 47 48 49 50

284
ASUS43 KDMX 110308
RWRIA

WEATHER ROUNDUP FOR IOWA
NATIONAL WEATHER SERVICE DES MOINES IA
900 PM CST WED FEB 10 2016

NOTE: "FAIR" INDICATES FEW OR NO CLOUDS BELOW 12,000 FEET WITH NO
SIGNIFICANT WEATHER AND/OR OBSTRUCTIONS TO VISIBILITY.

* - THESE STATIONS ARE NOT NWS STATIONS...THUS NOT UNDER NWS
QUALITY CONTROL.  THEY ALSO DO NOT REPORT WEATHER SUCH
AS PRECIPITATION OR FOG.

IAZ001>003-012>014-020>022-031>034-043>046-110400-
   NORTHWEST IOWA

CITY           SKY/WX    TMP DP  RH WIND       PRES   REMARKS
CARROLL *      CLOUDY    16  10  79 NE12      30.16R WCI   3
CHEROKEE *     CLOUDY    14  10  85 NE8       30.18R WCI   3
DENISON *      CLOUDY    16  12  86 NE8G17    30.13R WCI   5
LE MARS *      CLOUDY    18  14  86 NE8       30.19R WCI   7
ORANGE CITY *  CLOUDY    16  12  86 E7        30.16R WCI   6
SHELDON *      CLOUDY    12   9  85 NE12      30.17R WCI  -2
SIOUX CITY     CLOUDY    20  13  74 NE9       30.18R WCI   9
SPENCER        CLOUDY    13   6  74 NE10      30.18S WCI   0
STORM LAKE *   CLOUDY    12  10  92 E14       30.16R WCI  -3
$$

IAZ055>058-069>071-079>083-090>094-110400-
   SOUTHWEST IOWA

CITY           SKY/WX    TMP DP  RH WIND       PRES   REMARKS
ATLANTIC *     CLOUDY    21  16  79 NE10G17   30.13R WCI  10
AUDUBON *      PTCLDY    16  12  86 NE12      30.13R WCI   3
CLARINDA *     CLOUDY    27  23  86 NE12      30.11R WCI  16
COUNCIL BLFS * CLOUDY    23  19  86 NE15      30.11R WCI  10
CRESTON *      CLOUDY    21  18  86 NE14      30.11R WCI   8
HARLAN  *      CLOUDY    19  16  86 E10       30.17R WCI   8
LAMONI         CLOUDY    22  17  81 NE10      30.10R WCI  11
RED OAK *      CLOUDY    25  21  86 NE15      30.10R WCI  12
SHENANDOAH *   MOCLDY    28  27  93 NE13G20   30.09R WCI  18
$$

IAZ047>049-059>061-072>074-084-110400-
   CENTRAL IOWA

CITY           SKY/WX    TMP DP  RH WIND       PRES   REMARKS
AMES           CLOUDY    13   6  74 NE6       30.18R WCI   4
ANKENY *       CLOUDY    16  10  79 NE8       30.17S WCI   5
BOONE *        CLOUDY    12   7  79 NE7       30.16R WCI   2
CHARITON *     CLOUDY    19  14  79 NE8       30.13R WCI   9
DES MOINES     CLOUDY    18  11  74 NE10      30.16R WCI   6
GRINNELL*      CLOUDY    16   7  67 N6        30.17R WCI   7
KNOXVILLE *    CLOUDY    18  12  79 NE9       30.14S WCI   6
MARSHALLTOWN   CLOUDY    14   4  64 N8        30.17R WCI   3
NEWTON *       CLOUDY    16   9  73 NE7       30.17R WCI   6
PELLA *        CLOUDY    18  12  79 CALM      30.17S
$$

IAZ004>006-015-016-023>025-035-036-110400-
   NORTH CENTRAL IOWA

CITY           SKY/WX    TMP DP  RH WIND       PRES   REMARKS
ALGONA *       CLOUDY    12   5  73 NE9       30.18R WCI   0
CLARION *      CLOUDY     9   0  66 NE7       30.19R WCI  -3
ESTHERVILLE    CLOUDY    10   3  73 N8        30.19R WCI  -2
FORT DODGE *   CLOUDY    12   3  67 NE6       30.20R WCI   3
MASON CITY     CLOUDY     6   0  76 N7        30.20R WCI  -6
FOREST CITY *  MOCLDY     9   3  78 N3        30.20R
WEBSTER CITY * CLOUDY    12   5  73 NE7       30.17R WCI   2
IOWA FALLS *   CLOUDY    12   3  67 N8        30.19R WCI   1
$$

IAZ007>011-017>019-026>030-037>042-050>054-066-110400-
   NORTHEAST IOWA

CITY           SKY/WX    TMP DP  RH WIND       PRES   REMARKS
CEDAR RAPIDS   CLOUDY    12   3  67 N8        30.16R WCI   0
CHARLES CITY * CLOUDY     7  -2  66 N7        30.20R WCI  -5
CLINTON *      CLEAR      9   4  80 N7        30.18R WCI  -2
DECORAH *      CLOUDY     7  -2  66 N9        30.17R WCI  -7
DUBUQUE        CLOUDY    10   0  63 N6        30.15R WCI   0
MONTICELLO *   MOCLDY    10   1  67 NW5       30.18R WCI   2
OELWEIN *      CLOUDY     7   1  78 NW7       30.19R WCI  -5
WATERLOO       CLOUDY     9   0  67 N8        30.19R WCI  -3
$$

IAZ064-065-067-068-078-110400-
   EAST CENTRAL IOWA

CITY           SKY/WX    TMP DP  RH WIND       PRES   REMARKS
DAVENPORT      CLEAR      9   2  73 N7        30.17R WCI  -2
IOWA CITY      CLOUDY    16   4  59 N8        30.20R WCI   5
MT. PLEASANT * CLOUDY    21  16  79 N3        30.17R
MUSCATINE *    CLOUDY    18   5  57 N7        30.20R WCI   8
QUAD CITIES    CLEAR     15   2  56 NW3       30.18R
$$

IAZ062-063-075>077-085>089-095>099-110400-
   SOUTHEAST IOWA

CITY           SKY/WX    TMP DP  RH WIND       PRES   REMARKS
BURLINGTON     CLOUDY    19  13  77 CALM      30.16R
FAIRFIELD *    CLOUDY    18  12  79 NE6       30.17R WCI   9
FORT MADISON * CLOUDY    18  16  93 CALM      30.17R
KEOKUK *       FLURRIES  19  16  86 CALM      30.16R
OSKALOOSA *    CLOUDY    18  14  86 NE6       30.17S WCI   9
CENTERVILLE *  CLOUDY    19  18  93 NE7       30.14R WCI  10
OTTUMWA        CLOUDY    18  14  84 NE7       30.16R WCI   9
WASHINGTON *   CLOUDY    18   9  68 N7        30.18R WCI   8
$$

ABBREVIATIONS USED IN REMARKS
   TC - TEMPERATURES IN CELSIUS
  WCI - WIND CHILL INDEX
   HX - HEAT INDEX
  VSB - VISIBILITY
$$





USA.gov is the U.S. government's official web portal to all federal, state and local government web resources and services.